Omaha, IA

4:12 PM CDT on July 27, 2017 (GMT -0500)
Eppley Airfield

Weather History for KOMA - August, 2014

Change the Weather History Date:

Monday, August 25, 2014

  Actual Average Record
Temperature  
Mean Temperature 74 °F 73 °F  
Max Temperature 80 °F 84 °F 104 °F (1936)
Min Temperature 67 °F 62 °F 47 °F (1964)
Degree Days  
Heating Degree Days 0 0  
Month to date heating degree days 0 0  
Since 1 June heating degree days 10 18  
Since 1 July heating degree days 4 1  
Cooling Degree Days 9 9  
Month to date cooling degree days 281 255  
Year to date cooling degree days 972 932  
Since 1 June cooling degree days 829 850  
Growing Degree Days 24 (Base 50)    
Moisture  
Dew Point 62 °F    
Average Humidity 69    
Maximum Humidity 90    
Minimum Humidity 48    
Precipitation  
Precipitation T in 0.12 in 1.72 in (1987)
Month to date precipitation 3.75 3.16  
Year to date precipitation 22.81 22.45  
Snow  
Snow 0.00 in 0.00 in - ()
Month to date snowfall 0.0 0.0  
Since 1 July snowfall 0.0 0.0  
Snow Depth 0.00 in    
Sea Level Pressure  
Sea Level Pressure 29.96 in    
Wind  
Wind Speed 10 mph (North)    
Max Wind Speed 22 mph    
Max Gust Speed 26 mph    
Visibility 10 miles    
Events Thunderstorm    
T = Trace of Precipitation, MM = Missing Value Source: NWS Daily Summary

Daily Weather History Graph

Daily Weather History Graph

Search for Another Location

Airport or City:

Trip Planner

Search our weather history database for the weather conditions in past years. The results will help you decide how hot, cold, wet, or windy it might be!

Date:

Astronomy

Aug. 25, 2014 Rise Set
Actual Time 6:42 AM CDT 8:07 PM CDT
Civil Twilight 6:14 AM CDT 8:36 PM CDT
Nautical Twilight 5:39 AM CDT 9:10 PM CDT
Astronomical Twilight 5:02 AM CDT 9:47 PM CDT
Moon 6:49 AM CDT (8/25) 7:57 PM CDT (8/25)
Length of Visible Light 14h 22m
Length of Day
13h 24m
New Moon, 0% of the Moon is Illuminated
Aug 25
New Moon
Sep 2
First Quarter
Sep 8
Full
Sep 15
Last Quarter
Sep 24
New

Hourly Weather History & Observations

Time (CDT) Temp. Dew Point Humidity Pressure Visibility Wind Dir Wind Speed Gust Speed Precip Events Conditions
12:52 AM 73.9 °F 69.1 °F 85% 29.87 in 10.0 mi North 5.8 mph - N/A   Partly Cloudy
1:52 AM 73.4 °F 68.0 °F 83% 29.88 in 10.0 mi Calm Calm - N/A   Scattered Clouds
2:52 AM 71.6 °F 68.0 °F 88% 29.86 in 10.0 mi North 3.5 mph - N/A   Scattered Clouds
3:52 AM 72.0 °F 66.9 °F 84% 29.85 in 10.0 mi North 3.5 mph - N/A   Partly Cloudy
4:52 AM 71.1 °F 66.0 °F 84% 29.87 in 10.0 mi NNW 3.5 mph - N/A   Partly Cloudy
5:52 AM 69.8 °F 66.2 °F 88% 29.89 in 10.0 mi North 3.5 mph - N/A   Partly Cloudy
6:52 AM 69.1 °F 66.0 °F 90% 29.91 in 10.0 mi Calm Calm - N/A   Partly Cloudy
7:52 AM 71.1 °F 66.9 °F 87% 29.95 in 10.0 mi NW 9.2 mph - N/A   Scattered Clouds
8:52 AM 73.4 °F 64.4 °F 73% 29.99 in 8.0 mi NNW 12.7 mph - N/A   Scattered Clouds
9:52 AM 73.0 °F 62.1 °F 68% 29.99 in 10.0 mi NNW 20.7 mph 26.5 mph N/A   Scattered Clouds
10:52 AM 75.0 °F 57.9 °F 55% 30.04 in 10.0 mi North 23.0 mph - N/A   Scattered Clouds
11:52 AM 75.9 °F 57.0 °F 52% 30.02 in 10.0 mi North 19.6 mph - N/A   Mostly Cloudy
12:52 PM 78.1 °F 57.9 °F 50% 29.95 in 10.0 mi ENE 8.1 mph - N/A   Mostly Cloudy
1:52 PM 79.0 °F 59.0 °F 50% 29.99 in 10.0 mi North 15.0 mph 21.9 mph N/A   Mostly Cloudy
2:52 PM 77.0 °F 59.0 °F 54% 29.97 in 10.0 mi East 6.9 mph - N/A   Scattered Clouds
3:52 PM - 50.0 °F N/A% - - North - - N/A   Unknown
4:52 PM 77.0 °F 62.1 °F 60% 30.01 in 10.0 mi NNW 15.0 mph - N/A   Scattered Clouds
5:52 PM 73.0 °F 60.1 °F 64% 30.00 in 10.0 mi NNW 9.2 mph - N/A   Scattered Clouds
6:52 PM 73.9 °F 61.0 °F 64% 29.99 in 10.0 mi North 11.5 mph - N/A   Partly Cloudy
7:52 PM 71.1 °F 61.0 °F 70% 29.99 in 10.0 mi North 12.7 mph - N/A   Partly Cloudy
8:52 PM 69.8 °F 60.8 °F 73% 30.05 in 10.0 mi North 11.5 mph - N/A   Mostly Cloudy
9:52 PM 68.0 °F 60.8 °F 78% 30.06 in 10.0 mi North 11.5 mph - N/A   Mostly Cloudy
10:52 PM 68.0 °F 60.1 °F 76% 30.07 in 10.0 mi NNW 9.2 mph - N/A   Overcast
11:52 PM 66.9 °F 61.0 °F 81% 30.04 in 10.0 mi North 9.2 mph - N/A Thunderstorm Thunderstorm